Volver al catálogo

MOST

ActivoCienciaSSO
NORAD 27843·PAYLOAD·🇨🇦 Canada

Lanzado Jun 30, 2003 desde Plesetsk Cosmodrome

Loading…

Próximos Pases (próximas 24 horas)

TLE

ActualizadoSource: Space-Track

Época: Sep 14, 2026, 11:22 UTC

1 27843U 03031D   26257.47385858  .00000034  00000-0  35463-4 0  9993
2 27843  98.7082 263.9675 0009834   1.4954 358.6251 14.21337755203390

Sigue MOST en tiempo real con AllMySat

Download on the App Store